Find Local Weather

World > North America > United States > New York

Hancock, New York Regional Weather

Lat: 41.95N, Lon: 75.28W
Wx Zone: NYZ057
Feedback
Expires:201812130800;;716828
ASUS41 KBGM 130710
RWRBGM

REGIONAL WEATHER ROUNDUP
NATIONAL WEATHER SERVICE BINGHAMTON NY
200 AM EST THU DEC 13 2018

Note: "fair" indicates few or no clouds below 12,000 feet with no
significant weather and/or obstructions to visibility.

* = Station(s) that does not report precipitation, such as rain, 
snow, etc, also no thunder or fog.


NYZ009-015>018-022>025-036-037-044>046-055>057-062-130800
...Central New York...
  
CITY           SKY/WX    TMP DP  RH WIND       PRES   REMARKS
Binghamton     FAIR      27  20  75 SE12      30.13S WCI  17          
Cortland       CLOUDY    30  23  74 CALM      30.14S                  
Dansville      FLURRIES  35  24  64 SE7       30.09R WCI  29          
Elmira         CLOUDY    33  23  66 VRB5      30.12S WCI  29          
Seneca Falls   CLOUDY    34  25  69 S15G21    30.14S WCI  24          
Ithaca         CLOUDY    30  24  78 SE13      30.13S WCI  20          
Hamilton       PTCLDY    27  19  74 SE10      30.17S WCI  17          
Hornell        FLURRIES  34  25  69 SE5       30.11S WCI  30          
Monticello     FAIR      23  20  88 E7        30.23S WCI  15          
Norwich        PTCLDY    27  21  80 S7        30.19S WCI  19          
Oneonta        CLEAR     21  18  86 CALM      30.17R                  
Penn Yan       CLOUDY    32  24  72 SE6       30.10F WCI  26          
Rome           FAIR      22  17  81 E12       30.27R WCI  10          
Sidney         CLEAR     25  21  86 CALM      30.20S                  
Syracuse       CLOUDY    25  19  78 E10       30.19R WCI  15          
$$
 

SKY/WX - Weather  TMP - Temperature  DP - Dew Point  RH - Relative Humidity
WIND - Wind Direction/Speed PRES - Barometric Pressure